User: anonymous   Login
Location: Eaton
(41.3139°N, 82.0207°W)
Time: 06:32:04
(UTC+00:00)
Language:

Lacrosse 4 Rocket - Orbit

View from above orbital plane
View from above orbital plane
View from above satellite
View from above satellite

Ground track
Ground track

The orbit data is extracted from the following two-line orbital elements,

1 26474U 00047B   21263.34859261  .00000200  00000-0  28107-4 0  9990
2 26474  67.9921 249.5578 0052187  48.2577 312.3009 14.96220785148033
Epoch (UTC): 20 September 2021 08:21:58
Eccentricity: 0.0052187
inclination: 67.9921°
perigee height: 542 km
apogee height: 615 km
right ascension of ascending node: 249.5578°
argument of perigee: 48.2577°
revolutions per day: 14.96220785
mean anomaly at epoch: 312.3009°
orbit number at epoch: 14803

The dashed part of the orbit path shows where the satellite is in the earth's shadow,  

DLR